Regional Weather Roundup
Issued by NWS

Home | Current Version | Previous Version | Graphics & Text | Print | Product List | Glossary On
Versions: 1 2 3 4 5 6 7 8 9 10 11 12 13 14 15 16 17 18 19 20 21 22 23 24 25 26 27 28 29 30 31 32 33 34 35 36 37 38 39 40 41 42 43 44 45 46 47 48 49 50
000
ASUS44 KMEG 270010
RWRTN
TENNESSEE HOURLY STATE WEATHER ROUNDUP
NATIONAL WEATHER SERVICE MEMPHIS TN
700 PM CDT SUN MAR 26 2017

TNZ002-004-019-021-049-052-054-088>092-270100-
WEST TENNESSEE

CITY           SKY/WX    TMP DP  RH WIND       PRES   REMARKS
MEMPHIS INTL   PTCLDY    71  52  50 SW5       29.94R
NWS MEMPHIS      N/A     73 N/A N/A MISG        N/A
JACKSON        CLEAR     69  53  56 W7        29.95R
DYERSBURG      CLOUDY    67  54  63 W5        29.96R
SOMERVILLE     CLEAR     72  52  49 S5        29.94R
BOLIVAR        CLEAR     72  50  46 CALM      29.95R
PARIS          CLEAR     63  50  63 W6        29.97R
HUNTINGDON     CLEAR     68  54  60 CALM      29.95R
SAVANNAH       CLEAR     72  54  53 CALM      29.96R
$$

TNZ008-025-027-028-033-062-065-066-270100-
NORTH MIDDLE TENNESSEE

CITY           SKY/WX    TMP DP  RH WIND       PRES   REMARKS
NASHVILLE      MOCLDY    71  52  50 S10       29.98R
PORTLAND       CLOUDY    68  54  60 S8        29.97R
CLARKSVILLE    MOCLDY    69  51  52 W8        29.96R
SMYRNA         CLOUDY    70  55  59 S5        29.99R
COOKEVILLE     MOCLDY    66  55  68 SW6       30.00R
GALLATIN       CLOUDY    70  54  56 S7        30.00R
CROSSVILLE     MOCLDY    63  55  75 CALM      30.04R
$$

TNZ061-075-076-078-094-096-097-270100-
SOUTH MIDDLE TENNESSEE

CITY           SKY/WX    TMP DP  RH WIND       PRES   REMARKS
FAYETTEVILLE   PTCLDY    68  54  60 S5        30.02R
TULLAHOMA      CLEAR     64  52  63 S8        30.03R
WINCHESTER     CLEAR     66  54  63 SW5       30.03R
MCMINNVILLE    CLEAR     66  54  63 SW6       30.02R
COLUMBIA       CLOUDY    70  55  60 S7        29.97R
SHELBYVILLE    CLOUDY    70  57  64 S8        30.01R
$$

TNZ017-018-042-046-047-270100-
NORTHEAST TENNESSEE

CITY           SKY/WX    TMP DP  RH WIND       PRES   REMARKS
TRI CITIES     PTCLDY    64  53  67 SW5       30.04R
ELIZABETHTON   PTCLDY    70  50  49 S10       30.04R
$$

TNZ012-013-036-069-073-074-270100-
CENTRAL EAST TENNESSEE

CITY           SKY/WX    TMP DP  RH WIND       PRES   REMARKS
KNOXVILLE      PTCLDY    68  54  60 SW13      30.00R
OAK RIDGE      CLEAR     71  52  50 VRB5      30.01R
DOWNTOWN KNOXV PTCLDY    72  55  56 SW6G15    30.01R
GATLINBURG     PTCLDY    70  50  49 SW14      30.01R
MORRISTOWN     CLEAR     64  57  77 S3        30.02R
JACKSBORO      CLEAR     70  50  49 SW9G22    30.03R
$$

TNZ083-085-099-270100-
SOUTHEAST TENNESSEE

CITY           SKY/WX    TMP DP  RH WIND       PRES   REMARKS
CHATTANOOGA    MOCLDY    72  52  49 SW10      30.02R
$$

SKY/WX REPORTED AS FAIR MEANS FEW OR NO CLOUDS BELOW
12 THOUSAND FEET.




USA.gov is the U.S. government's official web portal to all federal, state and local government web resources and services.